Port Hope, MI

7:28 AM EDT on October 01, 2016 (GMT -0400)
Port Hope

Weather History for KP58 - September, 2012

Change the Weather History Date:

Friday, September 28, 2012

  Actual Average Record
Temperature  
Mean Temperature 52 °F -  
Max Temperature 63 °F 65 °F 79 °F (1997)
Min Temperature 42 °F 48 °F 42 °F (2012)
Degree Days  
Heating Degree Days 13    
Growing Degree Days 2 (Base 50)    
Moisture  
Dew Point 45 °F    
Average Humidity 78    
Maximum Humidity 93    
Minimum Humidity 56    
Precipitation  
Precipitation 0.00 in - - ()
Sea Level Pressure  
Sea Level Pressure 30.14 in    
Wind  
Wind Speed 2 mph (WSW)    
Max Wind Speed 8 mph    
Max Gust Speed -    
Averages and records for this station are not official NWS values.
T = Trace of Precipitation, MM = Missing Value Source: NWS Daily Summary

Daily Weather History Graph

Daily Weather History Graph

Search for Another Location

Airport or City:

Trip Planner

Search our weather history database for the weather conditions in past years. The results will help you decide how hot, cold, wet, or windy it might be!

Date:

Astronomy

Sep. 28, 2012 Rise Set
Actual Time 7:25 AM EDT 7:16 PM EDT
Civil Twilight 6:57 AM EDT 7:45 PM EDT
Nautical Twilight 6:23 AM EDT 8:18 PM EDT
Astronomical Twilight 5:49 AM EDT 8:52 PM EDT
Moon 6:18 PM EDT (9/28) 5:53 AM EDT (9/28)
Length of Visible Light 12h 48m
Length of Day
11h 50m
Waxing Gibbous, 98% of the Moon is Illuminated
Sep 28
Waxing Gibbous
Sep 29
Full
Oct 8
Last Quarter
Oct 15
New
Oct 21
First Quarter

Hourly Weather History & Observations

Time (EDT) Temp. Windchill Dew Point Humidity Pressure Visibility Wind Dir Wind Speed Gust Speed Precip Events Conditions
12:51 AM 45.0 °F - 43.0 °F 93% 30.17 in - Calm Calm - N/A   Unknown
1:51 AM 45.0 °F - 42.1 °F 90% 30.16 in - Calm Calm - N/A   Unknown
2:51 AM 43.0 °F - 41.0 °F 93% 30.17 in - Calm Calm - N/A   Unknown
3:51 AM 43.0 °F - 41.0 °F 93% 30.16 in - Calm Calm - N/A   Unknown
4:51 AM 42.1 °F 40.2 °F 39.9 °F 92% 30.16 in - SW 3.5 mph - N/A   Unknown
5:51 AM 45.0 °F 40.6 °F 42.1 °F 90% 30.16 in - WSW 8.1 mph - N/A   Unknown
6:51 AM 44.1 °F 40.8 °F 42.1 °F 93% 30.16 in - SW 5.8 mph - N/A   Unknown
7:51 AM 46.0 °F 43.1 °F 43.0 °F 89% 30.17 in - WSW 5.8 mph - N/A   Unknown
8:51 AM 51.1 °F - 45.0 °F 80% 30.17 in - WSW 4.6 mph - N/A   Unknown
9:51 AM 57.9 °F - 48.9 °F 72% 30.17 in - Calm Calm - N/A   Unknown
10:51 AM 61.0 °F - 46.0 °F 58% 30.17 in - Calm Calm - N/A   Unknown
11:51 AM 61.0 °F - 45.0 °F 56% 30.17 in - Calm Calm - N/A   Unknown
12:51 PM 62.1 °F - 46.0 °F 56% 30.16 in - Calm Calm - N/A   Unknown
1:51 PM 62.1 °F - 46.9 °F 58% 30.14 in - Calm Calm - N/A   Unknown
2:51 PM 62.1 °F - 48.0 °F 60% 30.13 in - Calm Calm - N/A   Unknown
3:51 PM 61.0 °F - 46.9 °F 60% 30.12 in - Calm Calm - N/A   Unknown
4:51 PM 60.1 °F - 46.9 °F 62% 30.11 in - North 4.6 mph - N/A   Unknown
5:51 PM 59.0 °F - 46.0 °F 62% 30.11 in - North 3.5 mph - N/A   Unknown
6:51 PM 57.0 °F - 46.9 °F 69% 30.10 in - Calm Calm - N/A   Unknown
7:51 PM 52.0 °F - 46.0 °F 80% 30.10 in - Calm Calm - N/A   Unknown
8:51 PM 48.9 °F - 46.0 °F 90% 30.09 in - Calm Calm - N/A   Unknown
9:51 PM 46.9 °F - 44.1 °F 90% 30.08 in - Calm Calm - N/A   Unknown
10:51 PM 46.0 °F 44.8 °F 44.1 °F 93% 30.08 in - SW 3.5 mph - N/A   Unknown
11:51 PM 46.0 °F 44.8 °F 43.0 °F 89% 30.08 in - SW 3.5 mph - N/A   Unknown